Regional Weather Roundup
Issued by NWS

Home | Current Version | Previous Version | Text Only | Print | Product List | Glossary On
Versions: 1 2 3 4 5 6 7 8 9 10 11 12 13 14 15 16 17 18 19 20 21 22 23 24 25 26 27 28 29 30 31 32 33 34 35 36 37 38 39 40 41 42 43 44 45 46 47 48 49 50
000
ASUS44 KOUN 300400
RWROK

WEATHER ROUNDUP FOR OKLAHOMA
NATIONAL WEATHER SERVICE NORMAN OK
1100 PM CDT THU SEP 29 2016

NOTE: "FAIR" INDICATES FEW OR NO CLOUDS BELOW 12,000 FEET WITH NO
      SIGNIFICANT WEATHER AND/OR OBSTRUCTIONS TO VISIBILITY.

OKZ001>007-009>012-014-015-017-300500-
NORTHWEST OKLAHOMA AND THE PANHANDLE

CITY           SKY/WX    TMP DP  RH WIND       PRES   REMARKS
GAGE           MOCLDY    57  47  69 SE7       30.32S
GUYMON         CLEAR     56  43  61 S7        30.30S
$$

OKZ016-021>023-033>039-044-045-300500-
SOUTHWEST OKLAHOMA

CITY           SKY/WX    TMP DP  RH WIND       PRES   REMARKS
LAWTON/REGL    CLEAR     54  51  90 N3        30.29S
FREDERICK      CLEAR     57  52  83 N8        30.27S
CLINTON        PTCLDY    59  48  67 E6        30.33S
HOBART         CLEAR     57  51  80 E5        30.31S
$$

OKZ018>020-024>031-300500-
CENTRAL OKLAHOMA

CITY           SKY/WX    TMP DP  RH WIND       PRES   REMARKS
OKLAHOMA CITY  PTCLDY    61  49  64 N6        30.29S
OKC/WILEY POST CLEAR     57  49  74 NW3       30.30S
STILLWATER     CLEAR     54  49  83 VRB7      30.29S
GUTHRIE        CLEAR     57  51  80 N3        30.29S
$$

OKZ008-013-054>072-300500-
NORTHEAST OKLAHOMA

CITY           SKY/WX    TMP DP  RH WIND       PRES   REMARKS
TULSA          PTCLDY    57  50  77 N6        30.27R
TULSA/JONES    CLEAR     57  50  77 CALM      30.28S
PONCA CITY     CLEAR     53  49  86 N3        30.30S
BARTLESVILLE   CLEAR     50  47  89 CALM      30.30S
MUSKOGEE       CLEAR     58  50  75 N5        30.27S
$$

OKZ032-040>043-046>053-073>077-300500-
SOUTH CENTRAL/SOUTHEAST OKLAHOMA

CITY           SKY/WX    TMP DP  RH WIND       PRES   REMARKS
MCALESTER      CLEAR     58  49  72 N5        30.27S
$$




USA.gov is the U.S. government's official web portal to all federal, state and local government web resources and services.